User: anonymous   Login
Location: Stoke Bliss
(52.2667°N, 2.5167°W)
Time: 15:44:30
(UTC+00:00)
Language:

SJ-6B - Orbit

View from above orbital plane
View from above orbital plane
View from above satellite
View from above satellite

Ground track
Ground track

The orbit data is extracted from the following two-line orbital elements,

1 28415U 04035C   21135.70175707 -.00000009  00000-0  37360-5 0  9992
2 28415  97.5678 178.7825 0049829 300.0311  59.5978 15.07106396913679
Epoch (UTC): 15 May 2021 16:50:31
Eccentricity: 0.0049829
inclination: 97.5678°
perigee height: 510 km
apogee height: 579 km
right ascension of ascending node: 178.7825°
argument of perigee: 300.0311°
revolutions per day: 15.07106396
mean anomaly at epoch: 59.5978°
orbit number at epoch: 91367

The dashed part of the orbit path shows where the satellite is in the earth's shadow,  

DLR